User: anonymous   Login
Location: Unspecified
(0.0000°N, 0.0000°E)
Time: 11:29:55
(UTC+00:00)
Language:

DMSP 5D-3 F19 (USA 249) - Orbit

View from above orbital plane
View from above orbital plane
View from above satellite
View from above satellite

Ground track
Ground track

The orbit data is extracted from the following two-line orbital elements,

1 39630U 14015A   18315.74558712 0.00000000  00000-0  00000-0 0    02
2 39630  98.7776 328.0269 0009000 184.5198 175.4800 14.13898200    03
Epoch (UTC): 11 November 2018 17:53:38
Eccentricity: 0.0009000
inclination: 98.7776°
perigee height: 839 km
apogee height: 852 km
right ascension of ascending node: 328.0269°
argument of perigee: 184.5198°
revolutions per day: 14.13898200
mean anomaly at epoch: 175.4800°
orbit number at epoch: 0

The dashed part of the orbit path shows where the satellite is in the earth's shadow,  

DLR